Location: Newark
(52.2090°N, 4.1550°W)
Time: 23:33:12
(UTC+00:00)

Transit 4A - Visible Passes

Search period start: 23 October 2019 00:00
Search period end: 02 November 2019 00:00
Orbit: 867 x 978 km, 66.8° (Epoch: 23 October)

Date Brightness Start Highest point End Pass type
(mag) Time Alt. Az. Time Alt. Az. Time Alt. Az.
23 Oct 10.4 02:48:58 10° SE 02:52:03 14° ESE 02:55:06 10° ENE visible
23 Oct 8.3 04:32:28 17° SSW 04:37:18 63° ESE 04:43:26 10° NE visible
23 Oct 8.5 06:18:07 10° WSW 06:24:02 41° NW 06:29:50 10° NE visible
24 Oct 10.0 02:58:59 17° SE 03:01:02 20° ESE 03:05:24 10° ENE visible
24 Oct 7.9 04:42:33 24° SSW 04:46:37 84° SE 04:52:50 10° NE visible
25 Oct 9.5 03:08:55 26° SE 03:10:05 28° ESE 03:15:15 10° NE visible
25 Oct 7.9 04:52:29 28° SW 04:56:00 76° NW 05:02:11 10° NE visible
26 Oct 8.9 03:18:42 38° SE 03:19:13 38° ESE 03:24:53 10° NE visible
26 Oct 8.0 05:02:16 29° WSW 05:05:26 59° NW 05:11:32 10° NE visible
27 Oct 8.5 03:28:23 52° ESE 03:28:25 52° ESE 03:34:24 10° NE visible
27 Oct 8.3 05:11:56 27° W 05:14:56 47° NW 05:20:52 10° NE visible
28 Oct 10.4 01:54:26 14° E 01:54:26 14° E 01:55:55 10° ENE visible
28 Oct 8.1 03:37:59 69° ESE 03:37:59 69° ESE 03:43:49 10° NE visible
28 Oct 8.6 05:21:31 24° W 05:24:31 38° NW 05:30:12 10° NNE visible
29 Oct 10.2 02:03:58 17° ENE 02:03:58 17° ENE 02:06:00 10° ENE visible
29 Oct 7.9 03:47:30 78° NNE 03:47:30 78° NNE 03:53:13 10° NE visible
29 Oct 8.8 05:31:02 21° WNW 05:34:09 32° NNW 05:39:35 10° NNE visible
30 Oct 10.0 02:13:25 21° ENE 02:13:25 21° ENE 02:15:45 10° NE visible
30 Oct 8.0 03:56:57 66° NNW 03:56:57 66° NNW 04:02:33 10° NE visible
30 Oct 9.0 05:40:29 18° WNW 05:43:50 27° NNW 05:48:58 10° NE visible
31 Oct 9.9 02:22:49 24° ENE 02:22:49 24° ENE 02:25:20 10° NE visible
31 Oct 8.2 04:06:21 53° NNW 04:06:21 53° NNW 04:11:54 10° NE visible
31 Oct 9.2 05:49:53 15° WNW 05:53:34 24° NNW 05:58:26 10° NE visible
01 Nov 9.7 02:32:11 26° NE 02:32:11 26° NE 02:34:49 10° NE visible
01 Nov 8.5 04:15:43 43° NNW 04:15:43 43° NNW 04:21:14 10° NE visible
01 Nov 9.4 05:59:14 12° WNW 06:03:21 22° NNW 06:07:59 10° NE visible
